Date,TemperatureHighF,TemperatureAvgF,TemperatureLowF,DewpointHighF,DewpointAvgF,DewpointLowF,HumidityHigh,HumidityAvg,HumidityLow,PressureMaxIn,PressureMinIn,WindSpeedMaxMPH,WindSpeedAvgMPH,GustSpeedMaxMPH,PrecipitationSumIn
2012-1-1,85,64,43,24,21,16,41,22,11,28.05,27.94,5,1,10,0.00
2012-1-2,82,68,52,24,18,10,18,15,12,28.09,27.97,8,2,11,0.00
2012-1-3,80,60,44,23,16,6,28,18,12,28.11,27.94,7,0,10,0.00
2012-1-4,78,60,42,24,19,13,41,22,13,28.11,27.97,7,1,13,0.00
2012-1-5,78,59,46,23,13,6,20,17,13,28.08,27.83,5,0,9,0.00
2012-1-6,75,55,39,21,13,4,30,19,13,27.88,27.74,4,0,7,0.00
2012-1-7,75,57,42,21,14,6,28,18,13,27.83,27.65,7,1,11,0.00
2012-1-8,59,48,37,17,14,10,40,26,17,27.91,27.73,9,1,11,0.00
2012-1-9,65,48,34,22,17,12,54,31,15,28.04,27.90,6,1,9,0.00
2012-1-10,69,50,36,24,17,10,50,30,15,28.02,27.79,5,0,6,0.00
2012-1-11,68,50,38,22,16,10,44,27,15,27.88,27.72,4,0,9,0.00
2012-1-12,64,51,44,20,14,9,32,24,15,27.84,27.75,6,0,8,0.00
2012-1-13,69,51,36,20,13,2,39,23,15,27.99,27.84,7,1,11,0.00
2012-1-14,75,55,37,21,10,-1,19,17,13,28.00,27.86,8,1,13,0.00
2012-1-15,67,58,51,49,21,6,86,28,15,27.94,27.84,4,0,9,0.00
2012-1-16,61,54,48,50,42,34,95,67,37,27.93,27.82,5,0,11,0.00
2012-1-17,67,53,43,56,33,16,96,55,15,28.05,27.93,6,1,8,0.00
2012-1-18,69,51,37,43,28,16,88,48,15,28.09,27.93,7,1,10,0.00
2012-1-19,47,45,43,28,26,24,53,48,41,27.96,27.93,0,0,0,0.00
2012-1-23,63,59,56,16,14,12,17,17,16,27.69,27.61,5,1,8,0.00
2012-1-24,60,52,42,28,22,11,49,32,17,27.90,27.64,11,2,17,0.00
2012-1-25,67,50,37,36,24,16,73,40,15,28.00,27.87,7,1,11,0.00
2012-1-26,77,55,38,26,21,14,54,31,13,27.97,27.77,6,0,8,0.00
2012-1-27,61,55,42,22,19,17,44,26,19,27.87,27.78,0,0,4,0.00
2012-1-28,76,60,44,28,21,11,50,25,13,28.00,27.85,7,1,11,0.00
2012-1-29,77,63,50,23,16,9,19,16,13,28.01,27.83,6,1,10,0.00
2012-1-30,76,59,43,22,16,9,34,20,13,27.89,27.73,7,1,12,0.00
2012-1-31,74,58,47,21,14,7,26,18,13,27.92,27.77,8,1,13,0.00
2012-2-1,75,56,40,21,14,7,31,20,13,27.97,27.76,7,0,11,0.00
2012-2-2,68,53,40,18,10,2,23,18,15,27.81,27.63,11,2,19,0.00
2012-2-3,66,49,35,17,10,2,32,21,15,27.85,27.75,8,1,11,0.00
2012-2-4,70,50,35,20,14,8,42,25,14,27.88,27.74,7,1,9,0.00
2012-2-5,73,54,38,21,15,9,40,23,13,27.88,27.71,8,1,11,0.00
2012-2-6,69,52,39,22,15,7,41,24,15,27.85,27.75,7,1,11,0.00
2012-2-7,79,60,41,24,17,6,30,20,12,27.84,27.67,8,1,9,0.00
2012-2-8,72,60,51,25,17,11,36,19,14,27.92,27.76,11,1,15,0.00
2012-2-9,73,57,44,34,24,13,58,31,13,27.94,27.80,13,2,19,0.00
2012-2-10,76,59,43,27,19,10,41,22,13,27.98,27.80,8,1,10,0.00
2012-2-11,82,62,45,24,18,10,29,19,12,27.86,27.58,9,1,16,0.00
2012-2-12,67,59,50,22,17,13,29,20,15,27.74,27.60,14,3,16,0.00
2012-2-13,67,55,42,28,21,14,50,28,15,27.81,27.63,8,2,14,0.00
2012-2-14,58,49,37,38,28,21,88,47,24,27.85,27.62,14,2,20,0.12
2012-2-15,66,50,35,38,23,11,86,44,15,27.89,27.69,8,1,9,0.00
2012-2-16,65,53,45,32,19,14,57,28,15,27.78,27.69,9,2,13,0.00
2012-2-17,56,49,45,35,33,30,67,55,39,27.90,27.78,6,1,8,0.00
2012-2-18,68,52,38,48,26,11,90,45,15,27.94,27.78,8,1,10,0.00
2012-2-19,66,54,41,26,20,14,46,28,15,27.81,27.60,10,2,17,0.00
2012-2-20,68,53,40,34,21,10,73,33,15,27.90,27.77,7,1,11,0.00
2012-2-21,74,56,39,21,16,9,40,22,13,27.94,27.80,8,1,9,0.00
2012-2-22,76,58,41,22,16,9,31,20,13,27.93,27.71,8,1,12,0.00
2012-2-23,77,60,41,23,14,6,28,17,13,27.75,27.56,8,1,15,0.00
2012-2-24,80,61,45,24,16,8,28,17,12,27.88,27.70,7,1,11,0.00
2012-2-25,79,60,43,24,16,9,33,18,13,27.90,27.67,7,1,13,0.00
2012-2-26,79,61,44,24,15,6,23,16,12,27.76,27.58,11,2,18,0.00
2012-2-27,75,63,52,30,18,10,36,18,13,27.74,27.55,17,6,23,0.00
2012-2-28,61,52,43,28,17,11,37,26,16,27.96,27.71,11,3,19,0.00
2012-2-29,69,52,36,25,17,7,52,28,15,27.99,27.81,9,2,13,0.00
2012-3-1,72,56,40,20,14,8,33,20,14,27.90,27.65,10,2,13,0.00
2012-3-2,61,52,41,19,11,1,29,20,15,27.97,27.70,12,3,24,0.00
2012-3-3,69,52,35,20,8,-2,20,17,15,28.08,27.93,8,1,12,0.00
2012-3-4,84,60,39,24,13,0,19,15,11,28.02,27.76,8,1,10,0.00
2012-3-5,86,64,44,26,15,3,20,15,11,27.88,27.72,5,1,8,0.00
2012-3-6,81,66,48,24,16,4,18,15,12,27.79,27.49,14,4,21,0.00
2012-3-7,64,55,44,17,10,2,18,17,15,27.81,27.51,12,4,20,0.00
2012-3-8,68,51,33,18,8,-3,20,17,15,28.04,27.81,7,2,13,0.00
2012-3-9,64,56,50,17,11,5,18,16,15,28.05,27.83,11,5,19,0.00
2012-3-10,64,55,47,17,12,7,24,18,15,27.84,27.75,9,3,15,0.00
2012-3-11,66,56,39,19,14,5,30,19,15,27.86,27.81,4,0,6,0.00
2012-3-15,67,63,59,18,16,14,17,16,15,27.79,27.75,4,1,5,0.00
2012-3-16,87,67,47,26,16,4,17,14,11,27.81,27.60,8,1,13,0.00
2012-3-17,79,68,54,24,18,8,17,15,12,27.70,27.49,13,4,17,0.00
2012-3-18,63,50,40,42,25,14,84,42,16,27.72,27.46,18,4,31,0.36
2012-3-19,50,43,37,34,24,16,74,49,29,27.79,27.63,13,2,17,0.12
2012-3-20,62,48,32,40,22,12,93,44,16,27.90,27.75,12,2,17,0.00
2012-3-21,72,55,38,30,20,14,59,30,14,27.91,27.68,11,1,17,0.00
2012-3-22,82,63,43,32,24,14,60,27,12,27.78,27.64,6,1,11,0.00
2012-3-23,85,68,52,28,21,14,36,17,11,27.83,27.67,7,1,15,0.00
2012-3-24,89,69,49,27,21,14,34,17,10,27.80,27.63,6,0,9,0.00
2012-3-25,84,72,56,24,20,12,17,14,11,27.73,27.60,10,2,15,0.00
2012-3-26,78,73,55,23,22,15,28,15,13,27.79,27.64,7,2,11,0.00
2012-3-27,85,67,46,30,23,15,48,22,11,27.83,27.66,7,1,11,0.00
2012-3-28,87,68,51,26,19,12,26,16,11,27.83,27.63,9,1,13,0.00
2012-3-29,86,68,50,25,18,10,21,15,11,27.80,27.63,9,1,13,0.00
2012-3-30,87,69,52,26,18,10,19,15,11,27.80,27.66,8,1,11,0.00
2012-3-31,91,74,56,27,20,12,17,14,10,27.79,27.59,8,1,14,0.00
2012-4-1,75,65,55,21,17,11,17,15,13,27.67,27.53,13,2,20,0.00
2012-4-2,65,56,43,17,11,2,18,16,14,27.71,27.60,10,2,23,0.00
2012-4-3,75,59,42,21,12,2,18,16,13,27.80,27.65,13,2,15,0.00
2012-4-4,82,65,46,24,15,4,17,15,12,27.79,27.61,8,1,12,0.00
2012-4-5,84,71,58,24,19,13,17,14,11,27.72,27.54,10,2,15,0.00
2012-4-6,82,67,52,24,18,7,18,15,12,27.82,27.69,8,1,14,0.00
2012-4-7,89,70,51,27,18,6,18,14,10,27.86,27.72,5,0,9,0.00
2012-4-8,93,74,54,27,20,7,18,13,9,27.89,27.68,8,1,11,0.00
2012-4-9,93,75,57,27,21,13,17,13,9,27.82,27.65,6,0,10,0.00
2012-4-10,94,74,57,32,20,12,17,13,9,27.76,27.57,9,1,15,0.00
2012-4-11,78,67,60,23,18,14,17,15,13,27.79,27.66,15,3,19,0.00
2012-4-12,70,61,52,30,21,11,37,22,14,27.86,27.75,10,2,17,0.00
2012-4-13,78,64,46,24,17,8,27,16,13,27.77,27.50,9,2,15,0.00
2012-4-14,62,53,42,40,20,10,82,32,16,27.77,27.54,15,5,23,0.16
2012-4-15,67,55,39,29,21,15,64,30,15,27.90,27.77,10,2,20,0.00
2012-4-16,80,64,46,29,22,14,50,23,12,27.94,27.79,8,1,11,0.00
2012-4-17,91,71,50,27,21,14,29,16,10,27.86,27.66,8,1,11,0.00
2012-4-18,93,76,54,33,21,11,20,13,9,27.80,27.62,10,1,15,0.00
2012-4-19,90,75,56,27,21,12,17,13,10,27.78,27.60,8,1,15,0.00
2012-4-20,94,77,58,33,22,13,17,13,9,27.79,27.65,9,1,15,0.00
2012-4-21,100,81,60,35,24,14,17,13,9,27.78,27.61,6,1,14,0.00
2012-4-22,102,83,63,35,25,16,16,12,9,27.77,27.58,7,1,9,0.00
2012-4-23,102,85,68,35,26,18,15,12,9,27.77,27.59,10,1,17,0.00
2012-4-24,96,80,63,33,25,17,24,14,9,27.76,27.62,9,1,13,0.00
2012-4-25,96,79,64,33,22,16,15,12,9,27.77,27.62,7,1,13,0.00
2012-4-26,80,73,65,25,20,17,16,14,12,27.78,27.67,13,3,21,0.00
2012-4-27,83,69,53,26,20,11,28,16,11,27.80,27.61,9,2,14,0.00
2012-4-28,88,73,56,26,21,14,25,14,10,27.67,27.48,8,1,13,0.00
2012-4-29,89,76,61,27,22,16,24,14,10,27.69,27.57,9,1,12,0.00
2012-4-30,92,77,60,32,22,14,24,14,9,27.76,27.60,8,1,13,0.00
2012-5-1,92,78,63,27,22,16,18,13,9,27.70,27.51,9,2,15,0.00
2012-5-2,89,76,60,27,21,14,19,13,10,27.71,27.57,9,2,12,0.00
2012-5-3,92,78,59,27,22,14,17,13,9,27.77,27.62,10,2,15,0.00
2012-5-4,94,81,58,31,24,14,17,13,9,27.80,27.71,5,0,11,0.00
2012-5-5,94,80,62,31,22,16,16,12,9,27.78,27.60,11,2,20,0.00
2012-5-6,67,66,65,18,17,17,15,15,15,27.72,27.72,0,0,0,0.00
2012-5-10,74,71,68,20,19,18,15,14,13,27.62,27.59,4,0,5,0.00
2012-5-11,95,80,62,33,24,16,21,13,9,27.74,27.59,10,2,15,0.00
2012-5-12,96,80,61,33,23,14,16,12,9,27.82,27.68,6,1,13,0.00
2012-5-13,99,81,61,34,24,14,16,12,9,27.82,27.62,10,1,13,0.00
2012-5-14,99,82,64,35,25,16,16,12,9,27.76,27.58,8,1,13,0.00
2012-5-15,98,87,74,35,27,20,13,11,9,27.72,27.56,11,2,17,0.00
2012-5-16,101,87,70,35,27,19,14,11,9,27.69,27.52,11,2,15,0.00
2012-5-17,99,85,65,35,26,16,15,12,9,27.71,27.52,11,2,17,0.00
2012-5-18,94,83,71,33,24,19,14,12,9,27.62,27.47,15,4,25,0.00
2012-5-19,93,79,61,27,22,14,16,12,9,27.69,27.59,9,1,12,0.00
2012-5-20,101,82,62,35,25,16,16,12,9,27.73,27.61,9,1,11,0.00
2012-5-21,106,87,65,35,27,16,15,12,9,27.76,27.58,9,1,14,0.00
2012-5-22,104,88,66,35,27,17,15,11,9,27.75,27.52,10,2,20,0.00
2012-5-23,99,87,71,35,27,20,14,11,9,27.59,27.40,15,4,25,0.00
2012-5-24,96,84,72,33,25,20,14,12,9,27.50,27.35,12,4,17,0.00
2012-5-25,93,82,69,33,24,18,15,12,9,27.53,27.41,14,5,18,0.00
2012-5-26,82,74,61,24,21,15,16,13,12,27.69,27.52,9,2,20,0.00
2012-5-27,84,70,52,24,18,7,17,14,11,27.78,27.66,8,1,11,0.00
2012-5-28,94,80,54,32,21,8,17,12,9,27.76,27.62,7,0,13,0.00
2012-5-29,98,83,58,35,25,13,17,12,9,27.78,27.62,8,1,12,0.00
2012-5-30,97,80,61,33,24,14,16,12,9,27.77,27.59,10,1,15,0.00
2012-5-31,101,84,64,35,26,16,16,12,9,27.66,27.49,8,1,13,0.00
2012-6-1,107,90,68,36,28,18,15,11,9,27.65,27.48,9,1,13,0.00
2012-6-2,101,88,70,35,27,19,14,11,9,27.69,27.52,8,1,12,0.00
2012-6-3,101,86,69,35,27,18,15,12,9,27.71,27.59,11,2,15,0.00
2012-6-4,100,86,70,35,26,19,14,12,9,27.74,27.55,10,1,12,0.00
2012-6-5,100,85,69,35,26,18,15,12,9,27.68,27.50,7,1,16,0.00
2012-6-6,101,86,66,35,26,17,15,12,9,27.63,27.46,11,2,15,0.00
2012-6-7,103,87,66,35,26,17,15,12,9,27.66,27.55,9,1,13,0.00
2012-6-8,103,87,66,35,27,17,15,12,9,27.69,27.52,10,2,15,0.00
2012-6-9,101,86,70,35,26,18,14,12,9,27.62,27.46,13,3,23,0.00
2012-6-10,100,86,69,35,26,18,15,12,9,27.66,27.55,11,2,17,0.00
2012-6-11,102,87,69,35,27,18,15,11,9,27.74,27.61,8,1,12,0.00
2012-6-12,104,88,68,35,27,18,15,11,9,27.77,27.55,8,1,13,0.00
2012-6-13,104,88,69,35,28,18,15,11,9,27.65,27.46,8,1,13,0.00
2012-6-14,101,87,68,35,27,18,15,12,9,27.67,27.49,11,2,13,0.00
2012-6-15,101,86,71,35,26,19,14,11,9,27.67,27.49,11,2,15,0.00
2012-6-16,100,83,68,51,27,18,39,13,9,27.74,27.58,11,1,26,0.04
2012-6-17,105,89,68,38,32,23,32,15,9,27.75,27.55,11,2,17,0.00
2012-6-18,104,92,73,35,29,20,13,11,9,27.66,27.49,9,2,19,0.00
2012-6-19,103,91,72,35,28,20,14,11,9,27.60,27.46,11,2,15,0.00
2012-6-20,104,89,68,35,28,19,15,11,9,27.61,27.49,9,2,17,0.00
2012-6-21,106,90,70,35,28,19,14,11,9,27.71,27.52,9,1,13,0.00
2012-6-22,107,91,75,36,29,21,13,11,9,27.66,27.43,8,1,13,0.00
2012-6-23,105,92,75,35,29,21,13,11,9,27.61,27.46,10,2,18,0.00
2012-6-24,102,90,79,40,32,23,22,13,10,27.73,27.60,9,1,15,0.00
2012-6-25,102,90,78,40,34,27,25,14,9,27.79,27.58,9,2,15,0.00
2012-6-26,106,90,79,39,33,29,21,14,9,27.67,27.52,11,2,19,0.00
2012-6-27,107,91,81,36,31,27,14,12,9,27.72,27.57,11,2,17,0.00
2012-6-28,104,91,79,35,31,25,18,12,9,27.79,27.64,10,2,20,0.00
2012-6-29,104,94,78,36,32,23,20,12,9,27.82,27.58,10,2,17,0.00
2012-6-30,103,92,78,43,34,24,28,14,9,27.73,27.52,11,2,19,0.00
2012-7-1,105,93,80,35,30,23,13,11,9,27.66,27.49,10,2,17,0.00
2012-7-2,102,90,78,36,31,23,19,13,9,27.70,27.52,13,2,15,0.00
2012-7-3,94,82,70,66,40,31,85,26,11,27.77,27.59,10,1,15,0.12
2012-7-4,89,74,69,68,61,43,91,69,21,27.77,27.69,14,1,24,0.47
2012-7-5,69,69,69,65,64,63,87,84,81,27.74,27.74,0,0,0,0.00
2012-7-6,98,92,82,42,34,28,21,13,11,27.78,27.62,10,3,17,0.00
2012-7-7,103,88,76,35,32,27,22,14,9,27.77,27.62,11,2,15,0.00
2012-7-8,105,88,79,40,35,30,25,16,9,27.79,27.67,11,1,16,0.00
2012-7-9,104,90,77,42,35,30,28,16,9,27.76,27.61,9,1,17,0.00
2012-7-10,105,91,80,48,36,28,31,15,9,27.73,27.55,8,1,12,0.12
2012-7-11,103,92,79,48,37,31,33,16,9,27.75,27.55,9,2,13,0.00
2012-7-12,103,88,77,54,43,31,43,24,9,27.73,27.55,10,2,13,0.00
2012-7-13,93,81,74,55,49,39,44,34,17,27.79,27.68,9,1,13,0.00
2012-7-14,93,80,74,64,56,45,72,46,20,27.80,27.71,16,2,21,0.00
2012-7-15,98,80,69,66,53,38,90,47,13,27.79,27.62,16,1,29,1.45
2012-7-16,94,82,69,63,48,39,80,36,16,27.77,27.63,9,1,11,0.04
2012-7-17,97,86,75,53,39,27,45,22,11,27.79,27.65,8,1,15,0.00
2012-7-18,100,87,70,40,32,23,31,15,10,27.77,27.62,9,2,17,0.00
2012-7-19,100,87,75,39,32,24,23,14,10,27.79,27.64,11,1,17,0.00
2012-7-20,104,84,71,67,46,31,85,33,9,27.86,27.65,8,1,13,0.16
2012-7-21,97,82,71,67,52,38,87,39,13,27.80,27.69,8,1,13,0.12
2012-7-22,92,78,71,63,57,41,74,52,18,27.83,27.74,13,0,18,0.12
2012-7-23,100,82,70,63,53,32,79,43,10,27.83,27.67,9,1,11,0.12
2012-7-24,98,78,71,63,54,37,69,48,13,27.80,27.71,18,0,29,0.43
2012-7-25,98,85,70,60,41,28,69,27,11,27.81,27.65,9,1,12,0.00
2012-7-26,98,87,76,49,37,28,39,19,11,27.76,27.65,8,1,17,0.00
2012-7-27,101,87,76,57,39,31,52,21,10,27.80,27.59,9,2,17,0.00
2012-7-28,98,79,73,67,57,42,81,51,16,27.80,27.68,11,1,13,0.04
2012-7-29,94,77,70,71,62,41,97,67,17,27.83,27.69,12,1,15,1.77
2012-7-30,84,77,72,67,51,37,84,47,19,27.85,27.78,9,2,17,0.00
2012-7-31,98,84,70,60,46,35,66,31,13,27.88,27.71,6,1,11,0.00
2012-8-1,99,86,72,60,42,28,63,26,10,27.89,27.71,6,1,11,0.00
2012-8-2,101,87,72,49,37,29,44,19,10,27.82,27.62,7,1,11,0.00
2012-8-3,102,88,72,44,34,28,33,16,9,27.74,27.55,8,1,11,0.00
2012-8-4,103,89,73,47,35,28,37,16,9,27.72,27.61,12,1,17,0.00
2012-8-5,105,87,72,66,42,31,77,26,9,27.86,27.64,17,1,22,0.36
2012-8-6,107,87,71,68,49,31,86,36,9,27.86,27.67,8,1,15,0.04
2012-8-7,102,89,72,66,44,30,71,27,9,27.83,27.61,8,1,13,0.00
2012-8-8,106,88,75,65,43,32,72,24,9,27.79,27.60,9,2,15,0.39
2012-8-9,108,90,76,57,41,28,51,22,8,27.79,27.58,8,1,11,0.00
2012-8-10,107,92,75,48,35,27,31,15,9,27.76,27.52,5,0,13,0.00
2012-8-11,104,89,78,49,37,30,35,17,9,27.70,27.58,6,0,13,0.00
2012-8-12,109,92,73,49,39,33,41,19,8,27.71,27.54,8,1,11,0.00
2012-8-13,110,94,78,40,33,27,23,12,8,27.70,27.54,9,2,14,0.00
2012-8-14,107,89,75,61,38,27,62,20,9,27.70,27.52,16,2,22,0.52
2012-8-15,94,83,72,62,50,39,70,36,17,27.76,27.56,11,2,15,0.00
2012-8-16,90,80,74,61,51,43,61,39,21,27.82,27.66,6,0,8,0.00
2012-8-17,90,77,71,69,62,48,85,63,25,27.83,27.76,9,1,13,0.00
2012-8-18,94,82,71,68,54,43,87,46,19,27.80,27.62,11,2,14,0.00
2012-8-19,101,85,72,64,49,32,67,34,10,27.74,27.55,8,1,13,0.00
2012-8-20,101,85,74,68,52,34,82,39,10,27.77,27.59,13,1,15,0.00
2012-8-21,99,82,73,65,53,36,75,40,14,27.77,27.61,11,2,17,0.00
2012-8-22,88,76,69,70,61,43,91,64,22,27.87,27.66,7,1,10,0.87
2012-8-23,91,81,73,72,58,45,92,54,21,27.77,27.65,6,1,13,0.00
2012-8-24,94,83,74,63,46,37,67,30,14,27.71,27.59,4,1,8,0.00
2012-8-25,97,84,70,57,44,34,62,29,13,27.71,27.56,8,1,15,0.00
2012-8-26,102,86,72,54,41,31,53,24,10,27.75,27.61,9,1,13,0.00
2012-8-27,103,88,76,52,39,30,42,20,9,27.78,27.64,9,1,13,0.00
2012-8-28,105,89,74,47,36,24,39,17,9,27.81,27.64,6,1,11,0.00
2012-8-29,102,87,70,49,36,22,45,19,9,27.77,27.55,8,1,17,0.00
2012-8-30,100,84,72,59,45,31,62,29,10,27.74,27.55,11,1,14,0.00
2012-8-31,97,85,72,52,44,33,50,27,11,27.77,27.62,8,1,12,0.00
2012-9-1,105,88,72,54,40,30,49,22,9,27.77,27.61,9,1,11,0.00
2012-9-2,105,85,74,52,42,31,46,24,9,27.77,27.61,11,1,16,0.00
2012-9-3,96,84,72,50,45,39,45,27,16,27.89,27.68,10,2,15,0.00
2012-9-4,90,80,74,52,47,42,46,32,19,27.92,27.72,8,2,13,0.00
2012-9-5,93,83,74,60,50,39,60,34,17,27.83,27.65,11,3,18,0.00
2012-9-6,97,79,72,68,58,42,87,54,17,27.80,27.65,9,1,15,0.16
2012-9-7,88,77,71,70,60,52,88,59,30,27.85,27.72,9,1,15,0.00
2012-9-8,74,74,73,65,64,63,74,71,69,27.77,27.77,0,0,0,0.00
2012-9-9,93,83,68,60,45,35,75,30,14,27.84,27.71,6,1,12,0.00
2012-9-10,94,76,69,60,53,36,71,49,14,27.86,27.69,9,1,15,0.04
2012-9-11,88,73,68,66,54,39,79,54,19,27.83,27.74,11,1,14,0.04
2012-9-12,88,77,67,67,53,40,93,50,20,27.84,27.72,11,2,15,0.04
2012-9-13,96,79,65,59,44,31,76,34,11,27.89,27.71,11,2,18,0.12
2012-9-14,86,78,71,33,29,24,22,17,13,27.92,27.81,8,4,17,0.00
2012-9-15,92,79,68,32,24,18,19,14,9,27.94,27.80,7,2,15,0.00
2012-9-16,94,78,61,35,27,19,31,17,10,27.92,27.74,10,1,15,0.00
2012-9-17,92,78,63,39,30,20,35,18,12,27.87,27.71,9,1,15,0.00
2012-9-18,96,81,65,45,34,20,44,22,11,27.87,27.71,7,1,11,0.00
2012-9-19,100,83,66,35,28,18,24,14,9,27.87,27.71,8,1,13,0.00
2012-9-20,100,84,71,35,27,20,17,12,9,27.88,27.74,6,0,10,0.00
2012-9-21,101,85,69,35,27,18,17,12,9,28.32,27.82,8,1,12,0.00
2012-9-22,103,84,70,35,26,19,17,12,9,28.95,27.98,11,1,16,0.00
2012-9-23,101,86,68,35,27,18,17,12,9,31.79,28.43,8,0,13,0.00
2012-9-24,97,82,67,34,26,18,20,13,9,31.81,29.35,8,1,15,0.00
2012-9-25,95,81,66,33,25,18,20,13,10,31.71,27.59,8,1,12,0.00
2012-9-26,93,80,67,38,28,20,33,16,10,27.72,27.59,9,1,12,0.00
2012-9-27,94,79,65,33,26,18,25,15,10,27.79,27.65,9,1,15,0.00
2012-9-28,91,77,71,35,28,20,23,17,12,27.77,27.66,9,2,14,0.00
2012-9-29,96,79,66,39,29,20,35,17,10,27.84,27.68,9,2,12,0.00
2012-9-30,97,81,63,35,28,20,33,16,9,27.82,27.65,8,1,15,0.00
2012-10-1,99,81,64,35,24,16,16,13,9,27.79,27.65,7,1,11,0.00
2012-10-2,100,82,65,35,25,16,15,12,9,27.78,27.61,7,1,11,0.00
2012-10-3,99,82,66,35,24,17,15,12,9,27.83,27.70,9,1,12,0.00
2012-10-4,95,80,65,33,24,16,15,13,10,27.90,27.77,9,2,15,0.00
2012-10-5,93,77,61,33,23,16,24,14,9,27.88,27.68,5,1,11,0.00
2012-10-6,90,76,62,27,21,15,19,13,10,27.78,27.63,7,1,11,0.00
2012-10-7,92,75,63,32,21,16,16,13,9,27.75,27.62,8,1,11,0.00
2012-10-8,92,76,60,32,22,14,19,13,9,27.80,27.65,5,0,9,0.00
2012-10-9,93,77,61,33,22,15,18,13,9,27.81,27.65,7,0,9,0.00
2012-10-10,92,76,60,32,22,14,22,14,10,27.82,27.62,8,1,11,0.00
2012-10-11,84,74,66,44,27,17,43,18,11,27.74,27.63,5,0,8,0.00
2012-10-12,75,67,58,39,27,18,43,23,16,27.88,27.71,10,1,15,0.00
2012-10-13,79,63,50,31,22,14,40,22,13,27.95,27.79,9,1,12,0.00
2012-10-14,93,73,51,33,23,15,32,17,9,27.89,27.69,8,1,11,0.00
2012-10-15,95,75,59,32,21,14,17,13,9,27.82,27.63,6,0,9,0.00
2012-10-16,90,72,56,27,20,12,17,14,10,27.75,27.57,7,1,10,0.00
2012-10-17,89,73,59,27,20,14,17,14,10,27.78,27.63,7,1,14,0.00
2012-10-18,86,74,64,56,38,17,68,32,15,27.87,27.69,9,2,15,0.00
2012-10-19,92,75,59,41,30,18,50,23,9,27.79,27.59,7,1,10,0.00
2012-10-20,89,74,60,32,23,16,24,15,10,27.72,27.57,8,1,13,0.00
2012-10-21,86,72,59,33,26,17,35,19,11,27.73,27.60,7,1,11,0.00
2012-10-22,86,70,55,32,24,18,36,19,11,27.76,27.66,7,0,10,0.00
2012-10-23,88,72,56,32,25,19,36,19,11,27.73,27.60,6,1,11,0.00
2012-10-24,83,70,58,31,23,14,32,18,11,27.76,27.63,8,1,16,0.00
2012-10-25,81,64,49,24,16,8,19,16,12,27.85,27.70,8,1,11,0.00
2012-10-26,86,66,48,25,15,4,19,14,11,27.83,27.66,7,1,11,0.00
2012-10-27,90,70,55,26,18,11,18,14,10,27.78,27.63,5,1,11,0.00
2012-10-28,90,71,53,26,19,11,20,14,10,27.84,27.69,7,1,11,0.00
2012-10-29,89,71,55,27,19,11,20,14,10,27.92,27.75,11,1,13,0.00
2012-10-30,88,70,54,27,19,11,20,14,10,27.89,27.72,7,1,12,0.00
2012-10-31,89,70,54,27,19,11,18,14,10,27.86,27.69,5,0,8,0.00
2012-11-1,90,70,53,27,19,11,18,14,10,27.83,27.66,5,0,8,0.00
2012-11-2,84,68,52,24,18,10,18,15,11,27.79,27.63,8,0,10,0.00
2012-11-3,83,68,53,26,20,14,28,16,11,27.86,27.73,5,0,8,0.00
2012-11-4,86,68,52,26,20,13,27,17,11,27.92,27.78,7,1,11,0.00
2012-11-5,90,70,52,26,18,10,21,14,10,27.94,27.78,8,1,9,0.00
2012-11-6,91,70,51,27,18,7,19,14,10,27.95,27.78,8,1,9,0.00
2012-11-7,92,72,53,27,19,11,18,14,9,27.89,27.68,6,0,16,0.00
2012-11-8,85,71,62,25,20,16,21,15,11,27.78,27.63,8,1,11,0.00
2012-11-9,76,67,59,51,35,21,74,34,17,27.76,27.55,12,3,18,0.12
2012-11-10,61,54,47,44,21,10,75,30,16,27.83,27.60,10,3,16,0.00
2012-11-11,63,48,37,22,12,4,42,24,16,28.06,27.83,6,1,11,0.00
2012-11-12,73,56,36,21,13,4,29,19,14,28.06,27.83,8,1,13,0.00
2012-11-13,76,57,41,22,11,1,21,16,13,27.97,27.79,6,1,9,0.00
2012-11-14,86,62,44,25,13,2,18,15,11,27.93,27.76,6,0,8,0.00
2012-11-15,80,61,46,24,14,4,18,15,12,27.91,27.79,4,0,6,0.00
2012-11-16,79,67,53,24,17,11,18,15,12,27.90,27.82,6,0,9,0.00
2012-11-17,78,66,52,35,18,10,36,16,13,27.91,27.79,4,0,6,0.00
2012-11-18,78,66,56,43,32,22,60,31,15,27.94,27.82,6,0,9,0.00
2012-11-19,77,63,49,40,28,17,63,31,13,28.00,27.89,7,0,9,0.00
2012-11-20,82,64,47,31,24,15,48,25,12,27.96,27.76,6,0,10,0.00
2012-11-21,83,66,55,28,21,13,29,19,11,27.86,27.73,6,0,8,0.00
2012-11-22,82,63,48,26,19,11,31,19,11,27.95,27.79,6,1,9,0.00
2012-11-23,86,67,48,26,19,11,28,17,11,27.98,27.84,6,1,10,0.00
2012-11-24,86,71,59,25,19,14,17,14,11,27.93,27.72,4,0,10,0.00
2012-11-25,85,65,50,25,18,11,28,17,11,27.80,27.63,6,0,9,0.00
2012-11-26,82,62,46,24,14,4,19,16,12,27.92,27.76,6,0,10,0.00
2012-11-27,83,64,46,24,16,6,19,16,11,27.99,27.82,7,0,11,0.00
2012-11-28,80,64,49,24,16,9,21,16,12,27.98,27.82,5,0,8,0.00
2012-11-29,76,60,46,27,19,12,39,21,13,27.99,27.86,6,1,11,0.00
2012-11-30,79,60,45,27,21,16,38,24,12,27.96,27.79,6,1,8,0.00
2012-12-1,77,60,45,30,22,11,50,26,13,27.93,27.79,6,0,9,0.00
2012-12-2,79,60,46,24,18,14,30,21,12,27.90,27.76,5,0,9,0.00
2012-12-3,74,60,47,25,19,15,34,22,13,27.95,27.83,7,1,11,0.00
2012-12-4,78,60,46,29,23,16,44,26,13,28.03,27.88,7,0,8,0.00
2012-12-5,82,62,48,25,19,11,31,20,11,27.95,27.73,6,0,8,0.00
2012-12-6,79,62,48,24,17,10,27,18,13,27.80,27.61,6,1,10,0.00
2012-12-7,76,60,48,21,17,11,29,19,13,27.74,27.64,10,0,10,0.00
2012-12-8,73,57,44,27,21,12,48,26,13,27.78,27.65,6,0,8,0.00
2012-12-9,69,56,43,23,17,6,36,22,15,27.87,27.71,8,1,15,0.00
2012-12-10,64,50,38,17,7,0,21,18,15,27.91,27.75,6,0,10,0.00
2012-12-11,69,49,33,19,6,-3,20,17,15,27.89,27.74,6,0,8,0.00
2012-12-12,74,54,36,21,10,-2,19,17,13,27.85,27.68,5,0,8,0.00
2012-12-13,70,58,47,48,20,7,78,27,14,27.77,27.52,10,2,18,0.48
2012-12-14,54,48,42,49,36,26,85,64,40,27.84,27.52,11,1,15,0.28
2012-12-15,55,50,46,42,35,26,75,58,36,27.84,27.73,8,1,11,0.08
2012-12-16,56,48,40,43,32,18,86,57,25,27.97,27.80,8,2,13,0.08
2012-12-17,65,47,36,44,29,22,87,55,20,27.98,27.78,4,0,8,0.00
2012-12-18,69,53,39,40,31,21,82,48,17,27.79,27.53,7,0,13,0.00
2012-12-19,57,47,41,36,29,22,65,50,31,27.84,27.55,11,5,23,0.12
2012-12-20,64,58,55,17,13,8,17,16,14,27.92,27.88,6,3,12,0.00
2012-12-21,73,57,42,21,11,2,19,16,14,27.92,27.77,8,1,11,0.00
2012-12-22,72,58,49,28,16,8,44,21,14,27.92,27.80,7,0,10,0.00
2012-12-23,70,53,41,38,26,14,71,39,14,27.95,27.78,5,0,8,0.00
2012-12-24,64,53,43,30,26,22,55,37,21,27.87,27.66,9,2,14,0.00
2012-12-25,56,49,42,31,22,14,63,36,23,27.89,27.77,7,2,12,0.00
2012-12-26,67,51,38,23,16,7,50,26,15,27.81,27.60,5,1,11,0.00
2012-12-27,56,43,34,28,20,13,64,42,20,27.85,27.64,9,1,25,0.00
2012-12-28,58,43,32,32,21,12,81,46,17,27.94,27.82,5,0,10,0.00
2012-12-29,66,47,33,19,16,12,53,32,15,27.92,27.72,8,1,11,0.00
2012-12-30,63,47,40,33,16,10,74,32,16,27.73,27.58,7,1,11,0.24
2012-12-31,50,43,34,41,23,15,86,47,28,27.98,27.73,7,1,11,0.00
2013-1-1,55,41,29,30,18,10,79,46,18,28.02,27.86,6,0,9,0.00